Location: Bonny Doon Airfield
(37.0704°N, 122.1252°W)
Time: 17:20:40
(UTC-07:00)

Vanguard 2 - Pass Details

Date: 14 December 2017
Orbit: 553 x 2939 km, 32.9° (Epoch: 20 July)

Event Time Altitude Azimuth Distance (km) Brightness Sun altitude
Rises 15:18:25 0° 244° (WSW) 4,915 13.1 14.2°
Reaches altitude 10° 15:22:26 10° 239° (WSW) 3,518 13.0 13.6°
Maximum altitude 15:30:14 46° 170° (S) 1,276 9.2 12.5°
Drops below altitude 10° 15:35:12 10° 97° (E) 2,252 9.6 11.8°
Sets 15:37:16 0° 90° (E) 3,011 10.1 11.5°
